WXM80 ListenWXM80 Stop

You find our weather info also at:

UK Metoffice

WeatherCloud

Weather Underground

Northeastern Weather Network

AWEKAS

Citizen Weather Observer Program (CWOP)

HAMweather, WeatherForYou, PWS Weather


Weather Underground History page Text

Daily Summary for August 21, 2018 Units:  Metric    English   Both
« Previous Day
Next Day »
Daily Weekly Monthly Yearly Custom
  Current: High: Low: Average:
Temperature: 26.3 °C -17.8 °C 17 °C 20.5 °C
Dew Point: 21.1 °C -17.8 °C 15.8 °C 17.9 °C
Humidity: 73 % Humidity % 70 % 85 %
Wind Speed: 1.1 km/h 0 km/h 0 km/h 0.5 km/h
Wind Gust: 3.7 km/h 0 km/h - -
Wind:ENE - - ENE
Pressure: 1016.1 hPa 0 hPa 1016.1 hPa -
Precipitation: 0 mm      
Historical Graphs
 
 
Tabular Data for August 21, 2018
Time Temperature Dew Point Pressure Wind Wind Speed Wind Gust Humidity Rainfall Rate (Hourly)
-17.8 °C -17.8 °C 0 hPa Calm     Humidity % 0 mm
00:04 19.1 °C 17.7 °C 1019.9 hPa Calm     92 % 0 mm
00:09 19.1 °C 17.7 °C 1019.9 hPa SE 0.5 km/h 5.6 km/h 92 % 0 mm
00:14 19.1 °C 17.8 °C 1020.2 hPa Calm   1.9 km/h 92 % 0 mm
00:19 19.1 °C 17.8 °C 1020.2 hPa Calm     92 % 0 mm
00:24 19.2 °C 17.8 °C 1020.2 hPa Calm     92 % 0 mm
00:29 19.2 °C 17.7 °C 1020.2 hPa Calm     91 % 0 mm
00:34 19.2 °C 17.7 °C 1020.2 hPa Calm     91 % 0 mm
00:39 19.3 °C 17.8 °C 1019.9 hPa Calm     91 % 0 mm
00:44 19.3 °C 17.8 °C 1020.2 hPa Calm     91 % 0 mm
00:49 19.3 °C 17.7 °C 1020.2 hPa Calm     90 % 0 mm
00:54 19.3 °C 17.7 °C 1020.2 hPa Calm     90 % 0 mm
00:59 19.3 °C 17.7 °C 1020.2 hPa Calm     90 % 0 mm
01:04 19.4 °C 17.7 °C 1019.9 hPa Calm     90 % 0 mm
01:09 19.4 °C 17.7 °C 1019.9 hPa Calm     90 % 0 mm
01:14 19.4 °C 17.7 °C 1019.9 hPa Calm     90 % 0 mm
01:19 19.4 °C 17.7 °C 1019.9 hPa Calm     90 % 0 mm
01:24 19.4 °C 17.7 °C 1019.9 hPa Calm     90 % 0 mm
01:29 19.4 °C 17.7 °C 1019.9 hPa Calm     90 % 0 mm
01:34 19.3 °C 17.7 °C 1019.9 hPa Calm     90 % 0 mm
01:39 19.3 °C 17.7 °C 1019.9 hPa Calm     90 % 0 mm
01:44 19.3 °C 17.7 °C 1019.9 hPa Calm     90 % 0 mm
01:49 19.3 °C 17.7 °C 1019.9 hPa Calm     90 % 0 mm
01:54 19.3 °C 17.6 °C 1019.9 hPa SE 0.3 km/h 5.6 km/h 90 % 0 mm
01:59 19.3 °C 17.4 °C 1019.5 hPa Calm     89 % 0 mm
02:04 19.3 °C 17.4 °C 1019.5 hPa Calm     89 % 0 mm
02:09 19.2 °C 17.4 °C 1019.5 hPa Calm     89 % 0 mm
02:14 19.2 °C 17.4 °C 1019.5 hPa Calm     89 % 0 mm
02:19 19.2 °C 17.3 °C 1019.5 hPa Calm     89 % 0 mm
02:24 19.1 °C 17.3 °C 1019.5 hPa Calm     89 % 0 mm
02:29 19.1 °C 17.2 °C 1019.5 hPa Calm     89 % 0 mm
02:34 19 °C 17.2 °C 1019.5 hPa Calm     89 % 0 mm
02:39 18.9 °C 17.1 °C 1019.5 hPa Calm     89 % 0 mm
02:44 18.9 °C 17.2 °C 1019.5 hPa Calm     90 % 0 mm
02:49 18.8 °C 17 °C 1019.5 hPa Calm     89 % 0 mm
02:54 18.8 °C 16.9 °C 1019.5 hPa Calm     89 % 0 mm
02:59 18.7 °C 16.9 °C 1019.5 hPa Calm     89 % 0 mm
03:04 18.7 °C 17 °C 1019.5 hPa Calm     90 % 0 mm
03:09 18.6 °C 16.9 °C 1019.2 hPa Calm     90 % 0 mm
03:14 18.6 °C 16.9 °C 1019.2 hPa Calm     90 % 0 mm
03:19 18.4 °C 16.8 °C 1019.2 hPa Calm     90 % 0 mm
03:24 18.4 °C 16.8 °C 1018.8 hPa Calm     90 % 0 mm
03:29 18.3 °C 16.7 °C 1018.8 hPa Calm     90 % 0 mm
03:34 18.3 °C 16.6 °C 1018.8 hPa Calm     90 % 0 mm
03:39 18.2 °C 16.6 °C 1018.8 hPa Calm     90 % 0 mm
03:44 18.2 °C 16.5 °C 1018.8 hPa Calm     90 % 0 mm
03:49 18.1 °C 16.4 °C 1018.8 hPa Calm     90 % 0 mm
03:54 18 °C 16.3 °C 1018.8 hPa Calm     90 % 0 mm
03:59 17.9 °C 16.4 °C 1018.8 hPa Calm     91 % 0 mm
04:04 17.9 °C 16.4 °C 1018.8 hPa Calm     91 % 0 mm
04:09 17.8 °C 16.3 °C 1018.8 hPa Calm     91 % 0 mm
04:14 17.8 °C 16.3 °C 1018.5 hPa Calm     91 % 0 mm
04:19 17.7 °C 16.2 °C 1018.5 hPa Calm     91 % 0 mm
04:24 17.7 °C 16.2 °C 1018.5 hPa Calm     91 % 0 mm
04:29 17.7 °C 16.2 °C 1018.5 hPa Calm     91 % 0 mm
04:34 17.6 °C 16.1 °C 1018.8 hPa Calm     91 % 0 mm
04:39 17.6 °C 16.1 °C 1018.8 hPa Calm     91 % 0 mm
04:44 17.5 °C 16 °C 1018.8 hPa Calm     91 % 0 mm
04:49 17.5 °C 16 °C 1018.8 hPa Calm     91 % 0 mm
04:54 17.4 °C 15.9 °C 1018.8 hPa Calm     91 % 0 mm
04:59 17.4 °C 16.1 °C 1018.8 hPa Calm     92 % 0 mm
05:04 17.4 °C 16.1 °C 1018.8 hPa Calm     92 % 0 mm
05:09 17.4 °C 16.1 °C 1018.8 hPa Calm     92 % 0 mm
05:14 17.3 °C 16 °C 1018.8 hPa Calm     92 % 0 mm
05:19 17.3 °C 15.9 °C 1018.8 hPa Calm     92 % 0 mm
05:24 17.3 °C 15.9 °C 1018.8 hPa Calm     92 % 0 mm
05:29 17.2 °C 15.9 °C 1018.8 hPa Calm     92 % 0 mm
05:34 17.2 °C 15.9 °C 1018.8 hPa Calm     92 % 0 mm
05:39 17.2 °C 15.9 °C 1018.8 hPa Calm     92 % 0 mm
05:44 17.2 °C 16 °C 1018.8 hPa Calm     93 % 0 mm
05:49 17.2 °C 16 °C 1018.8 hPa Calm     93 % 0 mm
05:54 17.2 °C 16 °C 1018.8 hPa Calm     93 % 0 mm
05:59 17.1 °C 15.9 °C 1018.8 hPa Calm     93 % 0 mm
06:04 17.1 °C 15.9 °C 1018.8 hPa Calm     93 % 0 mm
06:09 17.1 °C 15.9 °C 1018.8 hPa Calm     93 % 0 mm
06:14 17.1 °C 15.9 °C 1018.8 hPa Calm     93 % 0 mm
06:19 17.1 °C 15.9 °C 1018.8 hPa Calm     93 % 0 mm
06:24 17.1 °C 15.9 °C 1018.8 hPa Calm     93 % 0 mm
06:29 17 °C 15.8 °C 1018.8 hPa Calm     93 % 0 mm
06:34 17 °C 15.8 °C 1018.8 hPa Calm     93 % 0 mm
06:39 17 °C 15.8 °C 1018.8 hPa Calm     93 % 0 mm
06:44 17.1 °C 16.1 °C 1018.8 hPa Calm     94 % 0 mm
06:49 17.1 °C 16.1 °C 1019.2 hPa Calm     94 % 0 mm
06:54 17.1 °C 16.1 °C 1019.2 hPa Calm     94 % 0 mm
06:59 17.2 °C 16.2 °C 1019.2 hPa Calm     94 % 0 mm
07:04 17.3 °C 16.4 °C 1019.2 hPa Calm     95 % 0 mm
07:09 17.4 °C 16.6 °C 1019.2 hPa Calm     95 % 0 mm
07:14 17.7 °C 17 °C 1018.8 hPa Calm     96 % 0 mm
07:19 17.9 °C 17.3 °C 1018.8 hPa Calm     96 % 0 mm
07:24 18.2 °C 17.5 °C 1018.8 hPa East 0.8 km/h 1.6 km/h 96 % 0 mm
07:29 18.3 °C 17.7 °C 1018.8 hPa Calm     96 % 0 mm
07:34 18.6 °C 17.9 °C 1018.8 hPa Calm     96 % 0 mm
07:39 18.7 °C 18 °C 1018.8 hPa Calm     96 % 0 mm
07:44 18.8 °C 18 °C 1018.8 hPa Calm     95 % 0 mm
07:49 19 °C 18.2 °C 1018.8 hPa East 0.2 km/h 1.6 km/h 95 % 0 mm
07:54 19.2 °C 18.2 °C 1018.8 hPa Calm     94 % 0 mm
07:59 19.3 °C 18.3 °C 1018.8 hPa Calm     94 % 0 mm
08:04 19.4 °C 18.3 °C 1018.8 hPa Calm     93 % 0 mm
08:09 19.6 °C 18.3 °C 1018.8 hPa East 0.5 km/h 3.2 km/h 92 % 0 mm
08:14 19.7 °C 18.4 °C 1019.2 hPa Calm     92 % 0 mm
08:19 19.8 °C 18.3 °C 1018.8 hPa Calm     91 % 0 mm
08:24 20 °C 18.5 °C 1018.8 hPa Calm     91 % 0 mm
08:29 20.1 °C 18.4 °C 1018.8 hPa Calm     90 % 0 mm
08:34 20.3 °C 18.6 °C 1018.8 hPa Calm   1.9 km/h 90 % 0 mm
08:39 20.3 °C 18.4 °C 1018.8 hPa Calm     89 % 0 mm
08:44 20.4 °C 18.6 °C 1018.8 hPa Calm     89 % 0 mm
08:49 20.6 °C 18.3 °C 1018.8 hPa Calm     87 % 0 mm
08:54 20.6 °C 18.4 °C 1018.8 hPa Calm   1.9 km/h 87 % 0 mm
08:59 20.7 °C 18.3 °C 1018.8 hPa Calm     86 % 0 mm
09:04 20.8 °C 18.3 °C 1018.8 hPa Calm     86 % 0 mm
09:09 20.8 °C 18.4 °C 1018.8 hPa Calm     86 % 0 mm
09:14 20.9 °C 18.4 °C 1018.8 hPa Calm     86 % 0 mm
09:19 20.9 °C 18.3 °C 1018.8 hPa Calm     85 % 0 mm
09:24 20.9 °C 18.3 °C 1018.8 hPa Calm     85 % 0 mm
09:29 21 °C 18.4 °C 1018.8 hPa Calm     85 % 0 mm
09:34 21.1 °C 18.4 °C 1018.8 hPa Calm     85 % 0 mm
09:39 21.1 °C 18.5 °C 1018.8 hPa Calm     85 % 0 mm
09:44 21.2 °C 18.6 °C 1019.2 hPa Calm     85 % 0 mm
09:49 21.3 °C 18.3 °C 1019.2 hPa Calm     83 % 0 mm
09:54 21.6 °C 18.8 °C 1019.2 hPa Calm     84 % 0 mm
09:59 21.8 °C 18.6 °C 1018.8 hPa Calm     82 % 0 mm
10:04 22.2 °C 18.8 °C 1018.8 hPa Calm   5.6 km/h 81 % 0 mm
10:09 22.4 °C 19 °C 1018.8 hPa Calm     81 % 0 mm
10:14 22.6 °C 19 °C 1018.8 hPa Calm     80 % 0 mm
10:19 22.7 °C 18.8 °C 1018.8 hPa NE 1.1 km/h 1.9 km/h 79 % 0 mm
10:24 22.6 °C 18.8 °C 1018.8 hPa ENE 0.3 km/h 1.9 km/h 79 % 0 mm
10:29 22.6 °C 18.6 °C 1018.8 hPa NE 0.6 km/h 5.6 km/h 78 % 0 mm
10:34 22.7 °C 18.9 °C 1018.8 hPa Calm     79 % 0 mm
10:39 22.8 °C 19.2 °C 1018.8 hPa Calm     80 % 0 mm
10:44 23.1 °C 19.2 °C 1018.8 hPa ENE 0.6 km/h   79 % 0 mm
10:49 23.2 °C 18.8 °C 1018.8 hPa Calm   7.4 km/h 76 % 0 mm
10:54 23.5 °C 19.4 °C 1018.5 hPa Calm     78 % 0 mm
10:59 23.8 °C 19.3 °C 1018.5 hPa Calm     76 % 0 mm
11:04 24 °C 19.3 °C 1018.2 hPa ENE 1 km/h 5.6 km/h 75 % 0 mm
11:09 24.3 °C 19.8 °C 1018.2 hPa NE 0.5 km/h 3.2 km/h 76 % 0 mm
11:14 24.5 °C 19.8 °C 1018.2 hPa NE 0.3 km/h 3.2 km/h 75 % 0 mm
11:19 24.7 °C 19.8 °C 1018.2 hPa Calm     74 % 0 mm
11:24 24.9 °C 20 °C 1018.2 hPa ENE 4.2 km/h 3.7 km/h 74 % 0 mm
11:29 25.1 °C 20.4 °C 1018.2 hPa Calm     75 % 0 mm
11:34 25.3 °C 19.9 °C 1018.2 hPa ENE 2.9 km/h 4.8 km/h 72 % 0 mm
11:39 25.3 °C 20.2 °C 1018.2 hPa ENE 0.3 km/h 5.6 km/h 73 % 0 mm
11:44 25.4 °C 20 °C 1018.2 hPa ENE 0.5 km/h 7.4 km/h 72 % 0 mm
11:49 25.6 °C 20.1 °C 1018.2 hPa ENE 0.6 km/h 5.6 km/h 72 % 0 mm
11:54 25.6 °C 19.9 °C 1017.8 hPa ENE 0.8 km/h 5.6 km/h 71 % 0 mm
11:59 25.8 °C 20.6 °C 1017.8 hPa NE 0.3 km/h 5.6 km/h 73 % 0 mm
12:04 25.9 °C 20.7 °C 1017.5 hPa ENE 1 km/h 8 km/h 73 % 0 mm
12:09 25.9 °C 20.3 °C 1017.8 hPa ENE 1.3 km/h 4.8 km/h 71 % 0 mm
12:14 26 °C 20.3 °C 1017.5 hPa ENE 1.8 km/h 7.4 km/h 71 % 0 mm
12:19 26.1 °C 20.2 °C 1017.5 hPa ENE 2.4 km/h 13 km/h 70 % 0 mm
12:24 26.2 °C 20.9 °C 1017.5 hPa NE 0.5 km/h 5.6 km/h 73 % 0 mm
12:29 26.2 °C 20.3 °C 1017.5 hPa ENE 3.4 km/h 8 km/h 70 % 0 mm
12:34 26.2 °C 20.9 °C 1017.5 hPa ENE 3.4 km/h 6.4 km/h 73 % 0 mm
12:39 26.2 °C 21.2 °C 1017.5 hPa Calm     74 % 0 mm
12:44 26.3 °C 20.4 °C 1017.5 hPa NE 1.1 km/h 9.3 km/h 70 % 0 mm
12:49 26.3 °C 21.1 °C 1017.2 hPa ENE 1 km/h 9.3 km/h 73 % 0 mm
12:54 26.3 °C 20.7 °C 1017.2 hPa ENE 3.5 km/h 7.4 km/h 71 % 0 mm
12:59 26.4 °C 20.9 °C 1017.2 hPa ENE 1 km/h 9.3 km/h 72 % 0 mm
13:04 26.4 °C 20.8 °C 1017.2 hPa East 3.9 km/h 11.1 km/h 71 % 0 mm
13:09 26.4 °C 20.7 °C 1017.2 hPa ENE 2.9 km/h 13 km/h 71 % 0 mm
13:14 26.4 °C 21 °C 1017.2 hPa ENE 2.9 km/h 3.2 km/h 72 % 0 mm
13:19 26.3 °C 20.4 °C 1017.2 hPa NNE 1 km/h 18.5 km/h 70 % 0 mm
13:24 26.2 °C 20.7 °C 1017.2 hPa ENE 1.3 km/h 9.3 km/h 72 % 0 mm
13:29 26.2 °C 20.6 °C 1016.8 hPa ENE 4.8 km/h 14.8 km/h 71 % 0 mm
13:34 26.2 °C 21.2 °C 1016.8 hPa ENE 3.2 km/h 7.4 km/h 74 % 0 mm
13:39 26.1 °C 20.8 °C 1016.8 hPa ENE 1.8 km/h 5.6 km/h 73 % 0 mm
13:44 26 °C 20.8 °C 1016.8 hPa NE 1.9 km/h 8 km/h 73 % 0 mm
13:49 25.9 °C 20.7 °C 1016.5 hPa East 2.1 km/h 7.4 km/h 73 % 0 mm
13:54 25.9 °C 20.7 °C 1016.5 hPa ENE 4.3 km/h 8 km/h 73 % 0 mm
13:59 25.9 °C 21.2 °C 1016.5 hPa ENE 1 km/h 3.7 km/h 75 % 0 mm
14:04 26.1 °C 21.1 °C 1016.5 hPa ENE 0.2 km/h 6.4 km/h 74 % 0 mm
14:09 26.2 °C 20.8 °C 1016.1 hPa NE 0.8 km/h 3.7 km/h 72 % 0 mm
14:14 26.2 °C 21.2 °C 1016.1 hPa ENE 0.3 km/h 1.9 km/h 74 % 0 mm
14:19 26.3 °C 21.3 °C 1016.1 hPa ENE 0.6 km/h 3.2 km/h 74 % 0 mm
14:24 26.3 °C 21.1 °C 1016.1 hPa Calm     73 % 0 mm
14:29 26.3 °C 21.1 °C 1016.1 hPa ENE 1.1 km/h 3.7 km/h 73 % 0 mm
Crab Meadow Weather
Compliments of Weather Underground - 2.25 mb

Script developed by  Jim McMurry - jmcmurry@mwt.net Adapted for the template by  Wim van der Kuil - Leuven-Template.eu

Weather Terms: Hail - Precipitation in the form of lumps of ice that form during some thunderstorms.